Regional Weather Roundup
Issued by NWS State College, PA

Home | Current Version | Previous Version | Graphics & Text | Print | Product List | Glossary Off
Versions: 1 2 3 4 5 6 7 8 9 10 11 12 13 14 15 16 17 18 19 20 21 22 23 24 25 26 27 28 29 30 31 32 33 34 35 36 37 38 39 40 41 42 43 44 45 46 47 48 49 50

000
ASUS41 KCTP 041203
RWRCTP

REGIONAL WEATHER ROUNDUP
NATIONAL WEATHER SERVICE STATE COLLEGE PA
800 AM EDT SAT JUL 04 2015

Note: "fair" indicates few or no clouds below 12,000 feet with no
significant weather and/or obstructions to visibility.

* = STATION THAT DOES NOT REPORT PRECIPITATION /E.G. RAIN...SNOW...ETC/
    THUNDER OR FOG.

PAZ002>004-007>009-013>016-020>023-029>032-041300-
WESTERN PENNSYLVANIA

CITY           SKY/WX    TMP DP  RH WIND       PRES   REMARKS
ERIE           SUNNY     66  58  75 CALM      29.93R
MEADVILLE      SUNNY     63  56  78 NE6       29.94R
FRANKLIN*      CLOUDY    64  61  88 NE3       29.94R
NEW CASTLE     PTSUNNY   66  66 100 CALM      29.93R
BEAVER COUNTY  NOT AVBL
BUTLER*        CLOUDY    64  64 100 E3        29.93R
PITTSBURGH INT CLOUDY    67  64  90 NW7       29.91R FOG
PITTSBURGH     FOG       65  61  87 NW6       29.90R VSB 1
INDIANA*       FOG       64  64 100 CALM      29.94R VSB 1/2
LATROBE        CLOUDY    64  64 100 CALM      29.91R FOG
WASHINGTON CO* NOT AVBL
$$

PAZ004>006-010>012-017>019-024>028-033>037-041-042-045-046-049>053-041300-
CENTRAL PENNSYLVANIA

CITY           SKY/WX    TMP DP  RH WIND       PRES   REMARKS
BRADFORD       CLOUDY    62  60  93 E5        29.95S FOG
DUBOIS         CLOUDY    65  62  90 NE6       29.92R FOG
CLEARFIELD     CLOUDY    63  61  93 NE3       29.93R FOG
JOHNSTOWN      LGT RAIN  63  61  93 SW3       29.92R FOG
ALTOONA        HVY RAIN  62  61  96 SE3       29.93R VSB 1/2
STATE COLLEGE  LGT RAIN  63  61  94 CALM      29.92S FOG
WILLIAMSPORT   LGT RAIN  62  59  90 NE13      29.93S FOG
SELINSGROVE    RAIN      63  60  90 NE5       29.95R FOG
FT INDIANTOWN  LGT RAIN  63  63 100 NE2       29.93R
CAPITAL CITY   LGT RAIN  65  62  90 E3        29.93R FOG
HARRISBURG     LGT RAIN  66  63  90 CALM      29.92R FOG
YORK           RAIN      67  66  97 CALM      29.92R FOG
$$

PAZ038>040-043-044-047-048-054-055-060>062-067>071-041300-
EASTERN PENNSYLVANIA

CITY           SKY/WX    TMP DP  RH WIND       PRES   REMARKS
SCRANTON       RAIN      63  61  93 NE3       29.98R FOG
MOUNT POCONO   CLOUDY    61  59  93 CALM      29.99R FOG
ALLENTOWN      LGT RAIN  69  64  84 E6        29.94R
QUAKERTOWN*    CLOUDY    66  64  94 E5        29.95R
READING        CLOUDY    67  64  90 N3        29.92R
LANCASTER      CLOUDY    67  65  93 E5        29.92R FOG
COATESVILLE    CLOUDY    68  66  94 E5        29.93S FOG
POTTSTOWN      CLOUDY    68  65  90 E5        29.94R
BLUE BELL      CLOUDY    70  66  88 E5        29.92R
DOYLESTOWN     CLOUDY    66  64  93 CALM      29.93S
WILLOW GROVE   NOT AVBL
NORTH PHILA    CLOUDY    71  64  78 NE5       29.93S
PHILADELPHIA   PTSUNNY   72  66  81 NE8       29.92R
$$



USA.gov is the U.S. government's official web portal to all federal, state and local government web resources and services.